Location: Kawakawa
(35.3830°S, 174.0670°E)
Time: 15:57:32
(UTC+13:00)

Explorer 7 - Pass Details

Date: 12 December 2019
Orbit: 485 x 679 km, 50.3° (Epoch: 22 January)

Event Time Altitude Azimuth Distance (km) Brightness Sun altitude
Rises 03:01:11 0° 347° (NNW) 2,665 - -26.6°
Reaches altitude 10° 03:03:58 10° 6° (N) 1,749 - -26.3°
Maximum altitude 03:06:42 18° 50° (NE) 1,300 - -26.1°
Exits shadow 03:08:14 15° 79° (E) 1,445 9.1 -25.9°
Drops below altitude 10° 03:09:23 10° 94° (E) 1,712 9.7 -25.8°
Sets 03:12:03 0° 113° (ESE) 2,585 11.0 -25.6°
